• In Romania
  • List of Countries
  • For 7 days
  • Water Temperature
  • Satellite Maps
  • Weather Map
  • Weather Widgets
  • user-avatar
    Login

    Hourly Weather Brussels

    Today, 18 October, Wednesday

    Time Temperature Precipitation Wind Pressure Humidity
    00:00 +14°C° 0 mm 2 mps 758 mmHg 85%
    01:00 +14°C° 0 mm 2 mps 758 mmHg 87%
    02:00 +14°C° 0 mm 2 mps 757 mmHg 88%
    03:00 +13°C° 0 mm 2 mps 757 mmHg 89%
    04:00 +13°C° 0 mm 2 mps 757 mmHg 89%
    05:00 +13°C° 0 mm 2 mps 757 mmHg 89%
    06:00 +12°C° 0 mm 2 mps 757 mmHg 88%
    07:00 +13°C° 0 mm 2 mps 757 mmHg 83%
    08:00 +14°C° 0 mm 3 mps 756 mmHg 77%
    09:00 +16°C° 0 mm 3 mps 756 mmHg 72%
    10:00 +18°C° 0 mm 3 mps 756 mmHg 69%
    11:00 +19°C° 0 mm 3 mps 756 mmHg 66%
    12:00 +20°C° 0 mm 3 mps 756 mmHg 63%
    13:00 +21°C° 0 mm 3 mps 756 mmHg 65%
    14:00 +21°C° 0 mm 2 mps 756 mmHg 66%
    15:00 +21°C° 0 mm 2 mps 755 mmHg 68%
    16:00 +20°C° 0 mm 2 mps 755 mmHg 74%
    17:00 +18°C° 0 mm 2 mps 755 mmHg 79%
    18:00 +17°C° 0 mm 2 mps 755 mmHg 85%
    19:00 +16°C° 0 mm 2 mps 755 mmHg 86%
    20:00 +16°C° 0 mm 2 mps 756 mmHg 87%
    21:00 +14°C° 0 mm 3 mps 756 mmHg 88%
    22:00 +14°C° 0 mm 3 mps 756 mmHg 87%
    23:00 +15°C° 0 mm 2 mps 756 mmHg 87%

    Tomorrow, 19 October, Thursday

    Time Temperature Precipitation Wind Pressure Humidity
    00:00 +14°C° 0 mm 2 mps 755 mmHg 87%
    01:00 +14°C° 0 mm 2 mps 755 mmHg 87%
    02:00 +14°C° 0 mm 2 mps 755 mmHg 87%
    03:00 +14°C° 0 mm 2 mps 755 mmHg 87%
    04:00 +13°C° 0 mm 2 mps 755 mmHg 87%
    05:00 +12°C° 0 mm 3 mps 755 mmHg 88%
    06:00 +12°C° 0 mm 3 mps 755 mmHg 88%
    07:00 +13°C° 0 mm 3 mps 754 mmHg 83%
    08:00 +15°C° 0 mm 4 mps 754 mmHg 78%
    09:00 +17°C° 0 mm 4 mps 754 mmHg 73%
    10:00 +19°C° 0 mm 5 mps 754 mmHg 70%
    11:00 +20°C° 0 mm 5 mps 754 mmHg 67%
    12:00 +22°C° 0 mm 5 mps 754 mmHg 63%
    13:00 +22°C° 0 mm 5 mps 753 mmHg 64%
    14:00 +22°C° 0 mm 5 mps 753 mmHg 65%
    15:00 +22°C° 0 mm 5 mps 753 mmHg 66%
    16:00 +20°C° 0 mm 4 mps 753 mmHg 70%
    17:00 +19°C° 0 mm 4 mps 753 mmHg 73%
    18:00 +18°C° 0 mm 4 mps 753 mmHg 77%
    19:00 +17°C° 0 mm 4 mps 753 mmHg 80%
    20:00 +17°C° 0 mm 3 mps 754 mmHg 82%
    21:00 +16°C° 0 mm 3 mps 754 mmHg 84%
    22:00 +16°C° 0 mm 3 mps 754 mmHg 83%
    23:00 +15°C° 0 mm 4 mps 754 mmHg 81%

    Day after tomorrow, 20 October, Friday

    Time Temperature Precipitation Wind Pressure Humidity
    00:00 +15°C° 0 mm 4 mps 754 mmHg 79%
    01:00 +15°C° 0.5 mm 4 mps 754 mmHg 79%
    02:00 +15°C° 0.5 mm 4 mps 754 mmHg 79%
    03:00 +15°C° 0.5 mm 5 mps 754 mmHg 79%
    04:00 +15°C° 0.6 mm 5 mps 754 mmHg 81%
    05:00 +15°C° 0.6 mm 5 mps 754 mmHg 83%
    06:00 +14°C° 0.6 mm 4 mps 754 mmHg 85%
    07:00 +15°C° 0.5 mm 5 mps 754 mmHg 85%
    08:00 +15°C° 0.5 mm 6 mps 755 mmHg 85%
    09:00 +15°C° 0.5 mm 6 mps 755 mmHg 85%
    10:00 +15°C° 0.3 mm 6 mps 755 mmHg 82%
    11:00 +16°C° 0.3 mm 6 mps 755 mmHg 79%
    12:00 +16°C° 0.3 mm 6 mps 755 mmHg 77%
    13:00 +16°C° 0.1 mm 6 mps 755 mmHg 75%
    14:00 +16°C° 0.1 mm 5 mps 756 mmHg 73%
    15:00 +16°C° 0.1 mm 5 mps 756 mmHg 71%
    16:00 +15°C° 0 mm 5 mps 756 mmHg 73%
    17:00 +14°C° 0 mm 4 mps 756 mmHg 75%
    18:00 +14°C° 0 mm 4 mps 757 mmHg 76%
    19:00 +13°C° 0 mm 4 mps 757 mmHg 78%
    20:00 +12°C° 0 mm 4 mps 757 mmHg 79%
    21:00 +11°C° 0 mm 4 mps 757 mmHg 81%
    22:00 +11°C° 0 mm 4 mps 757 mmHg 79%
    23:00 +11°C° 0 mm 4 mps 757 mmHg 78%

    21 October, Saturday

    Time Temperature Precipitation Wind Pressure Humidity
    00:00 +11°C° 0 mm 4 mps 757 mmHg 77%
    01:00 +12°C° 0 mm 5 mps 756 mmHg 77%
    02:00 +12°C° 0 mm 5 mps 756 mmHg 76%
    03:00 +11°C° 0 mm 6 mps 755 mmHg 76%
    04:00 +11°C° 0.3 mm 6 mps 755 mmHg 79%
    05:00 +11°C° 0.3 mm 7 mps 755 mmHg 82%
    06:00 +11°C° 0.3 mm 7 mps 754 mmHg 85%
    07:00 +12°C° 0.6 mm 7 mps 754 mmHg 86%
    08:00 +14°C° 0.6 mm 7 mps 754 mmHg 87%
    09:00 +14°C° 0.6 mm 6 mps 755 mmHg 87%
    10:00 +14°C° 0.1 mm 7 mps 755 mmHg 82%
    11:00 +15°C° 0.1 mm 7 mps 755 mmHg 77%
    12:00 +15°C° 0.1 mm 7 mps 755 mmHg 71%
    13:00 +15°C° 0 mm 7 mps 755 mmHg 68%
    14:00 +15°C° 0 mm 7 mps 755 mmHg 65%
    15:00 +15°C° 0 mm 7 mps 755 mmHg 62%
    16:00 +14°C° 0 mm 7 mps 755 mmHg 63%
    17:00 +13°C° 0 mm 6 mps 755 mmHg 64%
    18:00 +11°C° 0 mm 6 mps 755 mmHg 65%
    19:00 +11°C° 0 mm 7 mps 755 mmHg 65%
    20:00 +11°C° 0 mm 7 mps 755 mmHg 66%
    21:00 +10°C° 0 mm 8 mps 755 mmHg 66%
    22:00 +10°C° 0 mm 8 mps 755 mmHg 68%
    23:00 +10°C° 0 mm 8 mps 755 mmHg 71%

    22 October, Sunday

    Time Temperature Precipitation Wind Pressure Humidity
    00:00 +10°C° 0 mm 8 mps 755 mmHg 73%
    01:00 +10°C° 0.2 mm 8 mps 755 mmHg 75%
    02:00 +9°C° 0.2 mm 8 mps 755 mmHg 78%
    03:00 +9°C° 0.2 mm 8 mps 755 mmHg 80%
    04:00 +9°C° 0.2 mm 7 mps 755 mmHg 80%
    05:00 +8°C° 0.2 mm 7 mps 756 mmHg 80%
    06:00 +8°C° 0.2 mm 6 mps 756 mmHg 81%
    07:00 +8°C° 0.1 mm 7 mps 756 mmHg 79%
    08:00 +9°C° 0.1 mm 7 mps 756 mmHg 77%
    09:00 +10°C° 0.1 mm 8 mps 757 mmHg 75%
    10:00 +10°C° 0.2 mm 8 mps 757 mmHg 76%
    11:00 +10°C° 0.2 mm 7 mps 757 mmHg 76%
    12:00 +10°C° 0.2 mm 7 mps 757 mmHg 76%
    13:00 +10°C° 0.2 mm 7 mps 758 mmHg 74%
    14:00 +10°C° 0.2 mm 7 mps 758 mmHg 73%
    15:00 +11°C° 0.2 mm 6 mps 758 mmHg 71%
    16:00 +10°C° 0.5 mm 6 mps 758 mmHg 75%
    17:00 +10°C° 0.5 mm 5 mps 759 mmHg 78%
    18:00 +9°C° 0.5 mm 5 mps 759 mmHg 82%
    19:00 +9°C° 0.6 mm 5 mps 759 mmHg 83%
    20:00 +9°C° 0.6 mm 5 mps 759 mmHg 85%
    21:00 +10°C° 0.6 mm 5 mps 760 mmHg 86%
    22:00 +9°C° 0.2 mm 5 mps 760 mmHg 86%
    23:00 +9°C° 0.2 mm 5 mps 760 mmHg 86%

    23 October, Monday

    Time Temperature Precipitation Wind Pressure Humidity
    00:00 +9°C° 0.2 mm 5 mps 760 mmHg 85%
    01:00 +9°C° 0.1 mm 5 mps 760 mmHg 86%
    02:00 +9°C° 0.1 mm 5 mps 761 mmHg 86%
    03:00 +9°C° 0.1 mm 5 mps 761 mmHg 87%
    04:00 +10°C° 0 mm 4 mps 761 mmHg 87%
    05:00 +10°C° 0 mm 4 mps 761 mmHg 88%
    06:00 +10°C° 0 mm 4 mps 761 mmHg 88%
    07:00 +11°C° 0 mm 4 mps 761 mmHg 87%
    08:00 +10°C° 0 mm 5 mps 762 mmHg 85%
    09:00 +12°C° 0 mm 5 mps 762 mmHg 84%
    10:00 +13°C° 0.1 mm 5 mps 762 mmHg 82%
    11:00 +13°C° 0.1 mm 5 mps 762 mmHg 81%
    12:00 +14°C° 0.1 mm 5 mps 762 mmHg 79%
    13:00 +14°C° 0.2 mm 5 mps 762 mmHg 81%
    14:00 +14°C° 0.2 mm 4 mps 762 mmHg 83%
    15:00 +13°C° 0.2 mm 4 mps 762 mmHg 85%
    16:00 +13°C° 0.2 mm 4 mps 762 mmHg 88%
    17:00 +13°C° 0.2 mm 3 mps 762 mmHg 90%
    18:00 +13°C° 0.2 mm 3 mps 763 mmHg 92%
    19:00 +12°C° 0.1 mm 3 mps 763 mmHg 92%
    20:00 +12°C° 0.1 mm 3 mps 763 mmHg 93%
    21:00 +12°C° 0.1 mm 3 mps 763 mmHg 93%
    22:00 +12°C° 0.1 mm 3 mps 763 mmHg 93%
    23:00 +12°C° 0.1 mm 3 mps 763 mmHg 94%
    Show more